Location: Bacharowice
(49.9333°N, 19.5833°E)
Time: 08:32:42
(UTC+00:00)

Cosmos 2344 - Pass Details

Date: 02 October 2021
Orbit: 1235 x 3007 km, 63.3° (Epoch: 19 October)

Event Time Altitude Azimuth Distance (km) Brightness Sun altitude
Rises 17:58:25 0° 296° (WNW) 4,217 8.0 -16.9°
Reaches altitude 10° 18:01:20 10° 305° (NW) 3,322 6.9 -17.4°
Maximum altitude 18:08:31 35° 11° (N) 2,215 4.9 -18.5°
Enters shadow 18:15:38 15° 69° (ENE) 3,623 5.5 -19.6°
